Location: Huntsville
(41.2590°N, 111.7678°W)
Time: 02:24:58
(UTC+00:00)

Courier 1B Rocket - Pass Details

Date: 14 June 2021
Orbit: 920 x 1202 km, 28.2° (Epoch: 30 July)

Event Time Altitude Azimuth Distance (km) Brightness Sun altitude
Rises 03:57:44 0° 217° (SW) 3,626 7.9 -9.2°
Reaches altitude 10° 04:01:34 10° 196° (SSW) 2,642 7.0 -9.8°
Maximum altitude 04:05:04 15° 162° (SSE) 2,254 6.4 -10.3°
Enters shadow 04:07:07 13° 140° (SE) 2,380 6.4 -10.5°
Drops below altitude 10° 04:08:31 10° 128° (SE) 2,606 - -10.7°
Sets 04:12:15 0° 106° (ESE) 3,548 - -11.2°
